FW4184 Weather Reports


time (UTC)temp
F
wind
direction
speed
knots
gust
knots
rain 1hr
in
rain 24hr
in
rain mn
in
humidity
%
barometer
mb
20260504081544 45 38 0.0 1.7 0.00 0.00 0.00 88 1015.1
20260504081030 45 38 0.0 1.7 0.00 0.00 0.00 89 1015.2
20260504080530 45 32 0.0 0.0 0.00 0.00 0.00 89 1015.2
20260504050513 43 30 0.0 0.0 0.00 0.00 0.00 87 1015.2
20260504050017 43 30 0.0 0.0 0.00 0.00 0.00 86 1015.4
20260504045511 43 30 0.0 0.0 0.00 0.00 0.00 85 1015.2
20260504045011 43 30 0.0 0.0 0.00 0.00 0.00 85 1015.0
20260504044518 43 30 0.0 0.0 0.00 0.00 0.00 86 1015.2
20260504044012 43 30 0.0 0.0 0.00 0.00 0.00 86 1015.1
20260504043510 43 30 0.0 0.0 0.00 0.00 0.00 85 1015.0
20260504043011 43 30 0.0 0.0 0.00 0.00 0.00 86 1015.1
20260504042508 43 30 0.0 0.0 0.00 0.00 0.00 86 1015.1
20260504042009 43 30 0.0 0.0 0.00 0.00 0.00 84 1015.1
20260504041506 43 30 0.0 0.0 0.00 0.00 0.00 85 1015.1
20260504041005 43 30 0.0 0.0 0.00 0.00 0.00 84 1015.3
20260504040508 42 30 0.0 0.9 0.00 0.00 0.00 84 1015.2
20260504040003 42 30 0.0 0.9 0.00 0.00 0.00 84 1015.2
20260504035503 42 30 0.0 1.7 0.00 0.00 0.00 84 1015.4
20260504035004 42 30 0.0 1.7 0.00 0.00 0.00 84 1015.4
20260504034502 42 30 0.0 0.0 0.00 0.00 0.00 83 1015.4
20260504034003 42 30 0.0 0.0 0.00 0.00 0.00 82 1015.4
20260504033501 42 30 0.0 0.9 0.00 0.00 0.00 81 1015.4
20260504033002 42 30 0.0 1.7 0.00 0.00 0.00 81 1015.3
20260504032501 43 30 0.0 0.9 0.00 0.00 0.00 80 1015.5
20260504032100 43 30 0.0 0.0 0.00 0.00 0.00 80 1015.6
20260504032001 43 30 0.0 0.0 0.00 0.00 0.00 81 1015.6
20260504031603 43 30 0.0 0.0 0.00 0.00 0.00 81 1015.6
20260504031503 43 30 0.0 0.0 0.00 0.00 0.00 81 1015.7
20260504031101 43 30 0.0 0.0 0.00 0.00 0.00 80 1015.6
20260504030600 44 30 0.0 0.9 0.00 0.00 0.00 79 1015.5
20260504030059 44 30 0.0 0.9 0.00 0.00 0.00 82 1015.5
20260504025559 44 30 0.0 0.0 0.00 0.00 0.00 82 1015.5
20260504025059 44 30 0.0 0.0 0.00 0.00 0.00 82 1015.2
20260504024600 43 30 0.0 1.7 0.00 0.00 0.00 81 1015.2
20260504024059 43 30 0.0 1.7 0.00 0.00 0.00 81 1015.2
20260504023559 43 30 0.0 0.9 0.00 0.00 0.00 81 1015.3
20260504023058 43 30 0.0 2.6 0.00 0.00 0.00 82 1015.2
20260504022558 43 30 0.9 2.6 0.00 0.00 0.00 80 1015.2
20260504022056 43 355 0.0 0.0 0.00 0.00 0.00 78 1015.3
20260504021559 43 342 0.0 0.0 0.00 0.00 0.00 78 1015.3
20260504021056 43 338 0.0 0.0 0.00 0.00 0.00 77 1015.2
20260504020556 43 346 0.0 0.0 0.00 0.00 0.00 77 1015.0
20260504020132 43 346 0.0 0.0 0.00 0.00 0.00 76 1015.0
20260504015556 44 346 0.0 0.0 0.00 0.00 0.00 75 1015.0
20260504015056 44 24 0.0 0.9 0.00 0.00 0.00 76 1014.9
20260504014604 44 24 0.0 2.6 0.00 0.00 0.00 77 1014.9
20260504014055 44 12 0.9 2.6 0.00 0.00 0.00 76 1015.0
20260504013554 44 5 0.0 0.0 0.00 0.00 0.00 74 1014.9
20260504013116 45 355 0.0 0.0 0.00 0.00 0.00 74 1014.7
20260504012555 45 355 0.0 0.0 0.00 0.00 0.00 73 1014.7
20260504012055 45 355 0.0 0.0 0.00 0.00 0.00 73 1014.7
20260504011553 45 355 0.0 0.0 0.00 0.00 0.00 72 1014.7
20260504011052 46 355 0.0 1.7 0.00 0.00 0.00 71 1014.6
20260504010552 46 10 0.0 1.7 0.00 0.00 0.00 72 1014.5
20260504010053 47 346 0.0 0.0 0.00 0.00 0.00 71 1014.5
20260504005552 47 345 0.0 0.0 0.00 0.00 0.00 70 1014.5
20260504005053 47 345 0.0 0.0 0.00 0.00 0.00 68 1014.5
20260504004623 48 344 0.0 0.0 0.00 0.00 0.00 67 1014.6
20260504004053 49 344 0.0 0.0 0.00 0.00 0.00 66 1014.6
20260504003552 49 344 0.0 0.0 0.00 0.00 0.00 63 1014.4
20260504003058 49 344 0.0 0.0 0.00 0.00 0.00 64 1014.5
20260504002551 50 341 0.0 0.0 0.00 0.00 0.00 63 1014.5
20260504002052 51 341 0.0 0.0 0.00 0.00 0.00 60 1014.3
20260504001619 51 341 0.0 0.0 0.00 0.00 0.00 59 1014.3
20260504001051 52 341 0.0 0.0 0.00 0.00 0.00 58 1014.4
20260504000551 53 341 0.0 0.0 0.00 0.00 0.00 57 1014.3
20260504000101 53 341 0.0 0.0 0.00 0.00 0.00 55 1014.4
20260503235550 54 314 0.0 0.0 0.00 0.00 0.00 55 1014.4
20260503235050 55 314 0.0 0.0 0.00 0.00 0.00 53 1014.5
20260503234553 56 314 0.0 0.0 0.00 0.00 0.00 51 1014.5
20260503234050 57 314 0.0 0.0 0.00 0.00 0.00 50 1014.4
20260503233550 58 314 0.0 0.0 0.00 0.00 0.00 48 1014.3
20260503233050 59 314 0.0 0.0 0.00 0.00 0.00 44 1014.3
20260503232549 61 314 0.0 2.6 0.00 0.00 0.00 40 1014.3
20260503232048 61 314 0.0 3.5 0.00 0.00 0.00 37 1014.3
20260503231548 62 331 0.9 3.5 0.00 0.00 0.00 41 1014.2
20260503231048 62 182 0.0 1.7 0.00 0.00 0.00 41 1014.1
20260503230547 62 196 0.0 0.9 0.00 0.00 0.00 39 1014.1
20260503230108 63 305 0.0 1.7 0.00 0.00 0.00 33 1014.2
20260503224544 63 229 1.7 4.3 0.00 0.00 0.00 31 1014.1
20260503224044 63 198 0.9 8.7 0.00 0.00 0.00 31 1014.1
20260503223544 63 290 3.5 7.0 0.00 0.00 0.00 29 1014.1
20260503223043 64 190 0.0 7.0 0.00 0.00 0.00 35 1014.2
20260503222542 65 304 0.9 7.0 0.00 0.00 0.00 31 1014.2
20260503222042 65 292 0.9 3.5 0.00 0.00 0.00 30 1014.1
20260503221543 65 254 1.7 7.8 0.00 0.00 0.00 33 1014.2
20260503221042 64 296 2.6 7.8 0.00 0.00 0.00 31 1014.2
20260503220542 65 171 0.0 3.5 0.00 0.00 0.00 32 1014.2
20260503220047 64 285 0.0 7.0 0.00 0.00 0.00 33 1014.2
20260503215542 64 313 1.7 7.8 0.00 0.00 0.00 30 1014.3
20260503215038 64 313 0.9 7.8 0.00 0.00 0.00 32 1014.3
20260503214538 64 274 2.6 7.0 0.00 0.00 0.00 31 1014.2
20260503214040 64 279 0.0 10.4 0.00 0.00 0.00 35 1014.2
20260503213537 64 280 5.2 10.4 0.00 0.00 0.00 30 1014.3
20260503213036 65 292 0.9 6.1 0.00 0.00 0.00 33 1014.3
20260503212538 64 256 0.0 9.6 0.00 0.00 0.00 32 1014.3
20260503212035 64 261 3.5 12.2 0.00 0.00 0.00 33 1014.3
20260503211535 64 303 5.2 12.2 0.00 0.00 0.00 31 1014.3
20260503211033 64 313 2.6 7.0 0.00 0.00 0.00 33 1014.3
20260503210532 64 277 2.6 7.8 0.00 0.00 0.00 31 1014.3
20260503210032 64 315 0.9 10.4 0.00 0.00 0.00 33 1014.5
20260503205535 63 36 6.1 12.2 0.00 0.00 0.00 30 1014.6
20260503205032 64 289 5.2 12.2 0.00 0.00 0.00 30 1014.5
20260503204530 64 148 0.9 7.8 0.00 0.00 0.00 34 1014.4
20260503204031 64 284 1.7 9.6 0.00 0.00 0.00 33 1014.6
20260503203530 63 313 2.6 12.2 0.00 0.00 0.00 32 1014.6
20260503203044 64 203 3.5 12.2 0.00 0.00 0.00 34 1014.7
20260503202527 64 318 2.6 11.3 0.00 0.00 0.00 36 1014.8
20260503202027 62 17 2.6 11.3 0.00 0.00 0.00 33 1014.9
20260503201532 62 275 2.6 12.2 0.00 0.00 0.00 33 1014.9
20260503201029 63 309 5.2 12.2 0.00 0.00 0.00 32 1014.9
20260503200528 63 17 0.0 11.3 0.00 0.00 0.00 33 1015.0
20260503200024 64 294 4.3 11.3 0.00 0.00 0.00 35 1015.0
20260503195523 63 228 1.7 7.8 0.00 0.00 0.00 35 1015.1
20260503195022 62 169 1.7 10.4 0.00 0.00 0.00 36 1015.1
20260503194536 63 318 5.2 10.4 0.00 0.00 0.00 34 1015.2
20260503194022 62 257 0.9 10.4 0.00 0.00 0.00 36 1015.3
20260503193521 62 104 6.1 14.8 0.00 0.00 0.00 38 1015.3
20260503193020 61 301 5.2 15.6 0.00 0.00 0.00 36 1015.5
20260503192520 61 281 7.0 15.6 0.00 0.00 0.00 34 1015.6
20260503192018 62 360 3.5 8.7 0.00 0.00 0.00 35 1015.6
20260503191518 61 11 0.9 12.2 0.00 0.00 0.00 36 1015.7
20260503191017 61 325 7.0 12.2 0.00 0.00 0.00 35 1016.1
20260503190516 61 293 0.9 12.2 0.00 0.00 0.00 38 1016.0
20260503190021 60 189 3.5 12.2 0.00 0.00 0.00 37 1016.1
20260503185520 60 281 5.2 10.4 0.00 0.00 0.00 39 1016.2
20260503185016 60 313 3.5 10.4 0.00 0.00 0.00 36 1016.2
20260503184522 61 304 6.1 11.3 0.00 0.00 0.00 36 1016.4
20260503184013 61 283 0.0 10.4 0.00 0.00 0.00 42 1016.4
20260503183511 60 325 4.3 10.4 0.00 0.00 0.00 39 1016.4
20260503183010 60 261 2.6 8.7 0.00 0.00 0.00 41 1016.4
20260503182509 60 247 1.7 8.7 0.00 0.00 0.00 40 1016.3
20260503182007 59 128 2.6 8.7 0.00 0.00 0.00 37 1016.5
20260503181507 59 321 0.9 7.0 0.00 0.00 0.00 39 1016.5
20260503181007 58 350 1.7 13.0 0.00 0.00 0.00 41 1016.7
20260503180506 58 296 7.8 13.0 0.00 0.00 0.00 37 1016.9
20260503180005 59 338 5.2 9.6 0.00 0.00 0.00 41 1016.8
20260503175505 58 355 2.6 11.3 0.00 0.00 0.00 41 1016.9
20260503175005 57 34 2.6 11.3 0.00 0.00 0.00 42 1016.9
20260503174604 58 348 5.2 10.4 0.00 0.00 0.00 39 1016.9
20260503174004 59 19 6.1 9.6 0.00 0.00 0.00 42 1016.9
20260503173502 58 19 3.5 7.0 0.00 0.00 0.00 44 1016.9
20260503173002 58 90 0.9 5.2 0.00 0.00 0.00 39 1017.1
20260503172558 57 140 0.0 7.8 0.00 0.00 0.00 44 1017.2
20260503172057 57 284 1.7 10.4 0.00 0.00 0.00 42 1017.2
20260503171603 56 26 6.1 10.4 0.00 0.00 0.00 41 1017.3
20260503171057 56 290 0.9 8.7 0.00 0.00 0.00 43 1017.4
20260503170556 56 263 0.9 10.4 0.00 0.00 0.00 42 1017.5
20260503150531 52 46 7.0 13.9 0.00 0.00 0.00 49 1018.6
20260503131005 47 295 6.1 10.4 0.00 0.00 0.00 51 1018.3
20260503130508 48 302 3.5 10.4 0.00 0.00 0.00 54 1018.3
20260503110533 44 360 3.5 12.2 0.00 0.00 0.00 54 1017.1